Find Starlink 33867

NORAD ID: 63795 Int'l Des: 2025-091 Owner: SPXS Country: US Constellation: starlink operational
LEOCIRCULAR

現在のビュー

3D地球を読み込み中...

About Starlink 33867

Starlink 33867 (NORAD 63795) is a starlink constellation satellite (v2 mini) launched May 2, 2025 by SPXS of US. It operates in LEO, CIRCULAR orbit with a mass of 575.00 kg.

次回通過

Passes for default location (London). Set your location on the main map for personalized predictions.

高度履歴

Loading altitude history...

軌道要素

1 63795U 25091W 26265.59062213 .00009053 00000-0 33812-3 0 9993
2 63795 43.0021 20.7012 0002112 282.4421 77.6195 15.27579440 79019
Epoch: Sep 22, 2026 • Age: 6 hours

現在のステータス

高度 493.3 km
遠地点 / 近地点 N/A
速度 7.62 km/s
衛星直下点 -38.50°S, 43.62°W
打ち上げ日 May 2, 2025
運用期間 1.3 years
タイプ internet

技術仕様

分類 Payload
質量 575.00 kg
乾燥質量 530.00 kg
長さ 0.30 m
スパン 29.00 m
形状 ? Box + pan
製造者 SPXS
バスタイプ Starlink V2MO
フェーズステータス In Orbit
所有者/国 SPXS/US

Most Searched